sat.trackr.live / text

‹ back to catalog

STARLINK-35971

NORAD 66895 · 2025-283T

PAYLOAD ACTIVE UNKNOWN

§ Identity

Operator
Country
US
Launch date
2025-12-04
Launch site
AFWTR
Launch vehicle
Mass (kg)
RCS (m²)

Purposes: comms

External: N2YO · Heavens-Above · Gunter

§ Orbital elements

Epoch: 2026-05-24T22:54:04.047264Z

Period
93.85 min
Inclination
53.1592°
Eccentricity
0.0000911
Mean motion
15.34423029 rev/d
Perigee alt
462.0 km
Apogee alt
463.3 km
Semi-major
6,840.8 km
B*
7.0602e-4
RAAN
29.7068°
Arg perigee
97.8256°
Mean anomaly
262.2850°
Rev number
2,752

§ Raw data

STARLINK-359711 66895U 25283T   26144.95421351  .00023570  00000+0  70602-3 0  99952 66895  53.1592  29.7068 0000911  97.8256 262.2850 15.34423029 27525

JSON: /api/v1/satellites/66895 · /tle

For live sub-satellite position, see the globe view (requires WebGL).

§ Visibility from observer

Set your observer location to see the next 7 days of passes ≥ 10°. The values pass through the URL so the page stays shareable.

No JS? Fill the form by hand. The geolocation button needs JavaScript.